Back to catalog

RADUGA 5

AliveMilitaryGEO
NORAD 11343·PAYLOAD·🇷🇺 Russia

Launched Apr 25, 1979 from Baikonur Cosmodrome

Loading…

TLE

FreshSource: Space-Track

Epoch: Sep 14, 2026, 14:12 UTC

1 11343U 79035A   26257.59208775 -.00000200  00000-0  00000-0 0  9994
2 11343   5.0745 281.4535 0004173 238.6814 132.1159  1.00269879130266

Track RADUGA 5 in real time with AllMySat

Download on the App Store